#timestamp,LO_Frequency,Hit,StdDev 
1551852015.3,286047006.3,N
1551852035.2,286047006.3,N
1551852055.0,286047010.7,Y
1551852055.9,286047010.7,P
1551852075.8,286047002.2,N
1551852095.6,286047004.2,N
1551852115.4,286047003.4,N
1551852135.3,286047005.5,N
1551852155.1,286047006.0,N
1551852175.9,286047004.6,N
1551852195.7,286047006.9,N
1551852215.5,286047007.2,Y
1551852235.4,286047002.6,P
1551852255.2,286047001.9,N
1551852275.0,286047002.1,N
1551852275.9,286047002.1,N
1551852295.8,286047001.3,N
1551852315.6,286047003.9,N
1551852335.5,286047003.7,N
1551852355.3,286047003.1,N
1551852375.1,286047005.6,Y
1551852395.9,286047001.6,P
1551852415.7,286047004.4,P
1551852435.6,286047003.6,P
1551852455.4,286047003.3,Y
1551852475.3,286047000.5,P
1551852495.1,286047000.2,N
1551852496.0,286047000.2,N
1551852515.8,286047000.1,N
1551852535.7,286047000.1,N
1551852555.5,286047000.3,N
1551852575.3,286047000.0,N
1551852595.2,286047000.5,N
1551852615.0,286046999.7,N
1551852615.9,286046999.7,N
1551852635.8,286047000.5,N
1551852655.6,286047002.8,Y
1551852675.4,286046999.7,P
1551852695.3,286047002.4,P
1551852715.1,286046999.8,N
1551852735.8,286047000.8,N
1551852755.7,286047000.9,N
1551852775.5,286047000.4,N
1551852795.4,286047000.0,N
1551852815.2,286047000.5,N
1551852835.0,286047000.5,N
1551852835.9,286047000.5,N
1551852855.8,286047000.6,N
1551852875.6,286046999.9,N
1551852895.5,286047002.8,Y
1551852915.3,286047002.7,P
1551852935.1,286047001.6,N
1551852955.9,286046999.8,N
1551852975.7,286047000.4,N
1551852995.5,286047000.0,N
1551853015.4,286047000.7,N
1551853035.2,286047000.7,N
1551853055.1,286047000.1,N
1551853056.0,286047000.1,N
1551853075.8,286047000.3,N
1551853095.6,286047000.0,N
1551853115.5,286047000.5,N
1551853135.3,286047000.1,N
1551853155.1,286047000.1,N
1551853175.9,286047004.2,Y
1551853195.7,286047000.4,P
1551853215.6,286047000.9,P
1551853235.4,286047000.9,P
1551853255.2,286046998.3,Y
1551853275.1,286046997.4,P
1551853276.0,286046997.4,N
1551853295.8,286046997.4,N
1551853315.7,286046996.8,N
1551853335.5,286046997.1,N
1551853355.3,286046997.2,N
1551853375.2,286046997.0,N
1551853395.0,286046998.2,N
1551853395.9,286046998.2,N
1551853415.7,286046998.8,N
1551853435.6,286046998.1,N
1551853455.4,286046998.1,N
1551853475.3,286047000.6,N
1551853495.1,286046998.6,N
1551853496.0,286046998.6,N
1551853515.8,286046999.7,N
1551853535.7,286047004.3,Y
1551853555.5,286047005.3,P
1551853575.4,286047004.5,N
1551853595.2,286047005.3,N
1551853615.0,286047004.9,N
1551853615.9,286047004.9,N
1551853635.8,286047003.6,N
1551853655.6,286047007.1,Y
1551853675.4,286047003.8,P
1551853695.3,286047003.8,P
1551853715.1,286047001.8,P
1551853735.9,286047000.8,N
1551853755.7,286046999.6,N
1551853775.5,286046997.9,N
1551853795.4,286046995.2,N
1551853815.2,286046994.2,N
1551853835.0,286046992.4,N
1551853836.0,286046992.4,N
1551853855.8,286046993.0,N
1551853875.6,286046991.1,N
1551853895.5,286046987.3,N
1551853915.3,286046988.2,N
1551853935.1,286046988.9,N
1551853955.9,286046987.6,N
1551853975.7,286046984.1,N
1551853995.6,286046985.2,N
1551854015.4,286046982.5,N
1551854035.2,286046981.1,N
1551854055.1,286046979.1,N
1551854056.0,286046979.1,N
1551854075.8,286046980.7,N
1551854095.6,286046981.3,N
1551854115.5,286046982.0,N
1551854135.3,286046977.4,N
1551854155.2,286046979.7,N
1551854175.9,286046978.5,N
1551854195.7,286046976.5,N
1551854215.6,286046978.0,N
1551854235.4,286046978.8,N
1551854255.3,286046975.7,Y
1551854275.1,286046990.6,P
1551854276.0,286046990.6,P
1551854295.8,286046992.5,P
1551854315.7,286046986.3,Y
1551854335.5,286047004.7,P
1551854355.4,286047005.0,N
1551854375.2,286047005.1,N
1551854395.0,286047003.0,N
1551854395.9,286047003.0,N
1551854415.8,286047003.6,N
1551854435.6,286047001.8,N
1551854455.4,286047004.3,N
1551854475.3,286047001.8,N
1551854495.1,286047002.6,N
1551854515.9,286046998.5,N
1551854535.7,286046998.9,N
1551854555.5,286047001.1,N
1551854575.4,286046998.9,N
1551854595.2,286046998.7,N
1551854615.0,286046996.6,N
1551854615.9,286046996.6,N
1551854635.8,286046997.5,N
1551854655.6,286046995.4,N
1551854675.5,286046995.5,N
1551854695.3,286046994.0,N
1551854715.1,286046995.9,N
1551854735.9,286046995.2,N
1551854755.7,286046993.3,N
1551854775.5,286046993.8,N
1551854795.4,286046995.9,N
1551854815.2,286046995.3,N
1551854835.1,286046994.1,N
1551854836.0,286046994.1,N
1551854855.8,286046994.6,N
1551854875.6,286046993.1,N
1551854895.5,286046990.1,N
1551854915.3,286046991.1,N
1551854935.1,286046990.4,N
1551854955.9,286046991.9,N
1551854975.7,286046990.1,N
1551854995.6,286046991.3,N
1551855015.4,286046989.4,N
1551855035.2,286046989.9,N
1551855055.1,286046987.1,Y
1551855056.0,286046987.1,P
1551855075.8,286046994.4,N
1551855095.7,286046991.8,N
1551855115.5,286046994.8,N
1551855135.3,286046996.4,N
1551855155.2,286046994.6,N
1551855175.0,286046991.9,N
1551855175.9,286046991.9,N
1551855195.7,286046994.8,N
1551855215.6,286046992.4,Y
1551855235.4,286046998.4,P
1551855255.3,286046999.4,N
1551855275.1,286046999.6,N
1551855295.8,286046999.3,N
1551855315.7,286046996.7,N
1551855335.5,286046997.0,N
1551855355.3,286046998.9,N
1551855375.2,286046999.2,N
1551855395.0,286046997.1,N
1551855395.9,286046997.1,N
1551855415.8,286046997.0,N
1551855435.6,286046998.0,N
1551855455.4,286046997.3,N
1551855475.3,286046996.6,N
1551855495.1,286046996.5,N
1551855515.9,286046997.0,N
1551855535.7,286046997.3,N
1551855555.5,286046997.1,N
1551855575.4,286046999.2,N
1551855595.2,286046999.5,N
